STARLINK-35982

Last updated on Mon Dec 15 2025 00:02:12 GMT+0000 (Coordinated Universal Time)

1 66828U 25280H 25348.25003472 -.01741966 00000+0 -13550-1 0 9992 2 66828 69.9946 194.5274 0003617 269.3398 44.6725 15.74476633 3146
UTC large
Height (km)
Speed (km/s)
/
Latitude / Longitude
Inclination (degrees)
Orbital Period (minutes)
Azimuth
Elevation
Range (km)
Doppler Factor

Next 0 passes for location: London (51.5072 / 0.1276)

Sorry there are no passes over London.